Location: Tucson
(32.2217°N, 110.9265°W)
Time: 07:36:32
(UTC-07:00)

Tiros 1 - Pass Details

Date: 28 October 2021
Orbit: 629 x 664 km, 48.4° (Epoch: 26 November)

Event Time Altitude Azimuth Distance (km) Brightness Sun altitude
Rises 11:53:42 0° 311° (NW) 2,979 10.3 44.3°
Reaches altitude 10° 11:58:02 10° 348° (NNW) 2,058 9.4 44.3°
Maximum altitude 11:59:17 11° 3° (N) 1,994 9.3 44.4°
Drops below altitude 10° 12:00:32 10° 19° (NNE) 2,052 9.4 44.4°
Sets 12:04:50 0° 56° (NE) 2,951 10.3 44.4°
